WB6TTB Weather Reports


Display with metric or nautical units.
time (UTC)temp
F
wind
direction
speed
MPH
gust
MPH
rain 1hr
in
rain 24hr
in
rain mn
in
humidity
%
barometer
mb
20260502222403 57 299 0.0 4.0 0.00 0.00 0.00 83 1011.9
20260502221803 57 298 0.0 7.0 0.00 0.00 0.00 83 1012.0
20260502221203 58 297 0.0 7.0 0.00 0.00 0.00 83 1012.0
20260502220603 57 298 0.0 3.0 0.00 0.00 0.00 84 1012.1
20260502215403 57 298 0.0 2.0 0.00 0.00 0.00 84 1012.1
20260502214803 57 292 0.0 2.0 0.00 0.00 0.00 85 1012.1
20260502214203 56 293 0.0 2.0 0.00 0.00 0.00 86 1012.2
20260502213603 56 297 0.0 2.0 0.00 0.00 0.00 86 1012.2
20260502213003 56 295 0.0 3.0 0.00 0.00 0.00 86 1012.2
20260502212403 56 290 0.0 3.0 0.00 0.00 0.00 86 1012.3
20260502210603 56 295 0.0 1.0 0.00 0.00 0.00 86 1012.4
20260502210004 56 296 0.0 2.0 0.00 0.00 0.00 86 1012.5
20260502205404 55 296 0.0 4.0 0.00 0.00 0.00 87 1012.6
20260502204804 55 294 0.0 2.0 0.00 0.00 0.00 87 1012.6
20260502204204 55 262 0.0 2.0 0.00 0.00 0.00 88 1012.6
20260502203604 55 233 0.0 4.0 0.00 0.00 0.00 89 1012.7
20260502203003 55 242 0.0 4.0 0.00 0.00 0.00 89 1012.7
20260502202404 55 283 0.0 1.0 0.00 0.00 0.00 89 1012.8
20260502201804 55 289 0.0 1.0 0.00 0.00 0.00 89 1012.8
20260502200603 54 286 0.0 1.0 0.00 0.00 0.00 91 1012.9
20260502200004 54 287 0.0 1.0 0.00 0.00 0.00 91 1012.8
20260502194803 54 289 0.0 1.0 0.00 0.00 0.00 92 1012.9
20260502193603 54 285 0.0 1.0 0.00 0.00 0.00 91 1012.9
20260502193003 54 284 0.0 2.0 0.00 0.00 0.00 90 1012.9
20260502192403 54 285 0.0 2.0 0.00 0.00 0.00 90 1012.9
20260502191803 54 271 0.0 5.0 0.00 0.00 0.00 89 1012.9
20260502191203 54 285 0.0 5.0 0.00 0.00 0.00 89 1012.9
20260502190603 55 286 0.0 4.0 0.00 0.00 0.00 89 1013.0
20260502190004 54 287 0.0 4.0 0.00 0.00 0.00 90 1013.0
20260502185403 54 293 0.0 4.0 0.00 0.00 0.00 90 1013.0
20260502184803 54 289 0.0 4.0 0.00 0.00 0.00 90 1012.9
20260502184204 54 290 0.0 1.0 0.00 0.00 0.00 89 1012.9
20260502183604 54 294 0.0 2.0 0.00 0.00 0.00 89 1012.9
20260502183004 54 265 0.0 1.0 0.00 0.00 0.00 90 1012.9
20260502182404 54 302 0.0 1.0 0.00 0.00 0.00 91 1012.9
20260502181804 54 0 0.0 0.0 0.00 0.00 0.00 91 1012.9
20260502181204 54 0 0.0 0.0 0.00 0.00 0.00 92 1012.9
20260502180603 53 0 0.0 0.0 0.00 0.00 0.00 91 1012.9
20260502164203 52 291 0.0 2.0 0.00 0.00 0.00 94 1012.7
20260502163603 52 296 0.0 2.0 0.00 0.00 0.00 94 1012.7
20260502163003 52 294 0.0 2.0 0.00 0.00 0.00 95 1012.7
20260502162403 52 302 0.0 2.0 0.00 0.00 0.00 95 1012.7
20260502161803 52 314 0.0 1.0 0.00 0.00 0.00 95 1012.6
20260502161204 52 0 0.0 0.0 0.00 0.00 0.00 96 1012.6
20260502151803 51 0 0.0 0.0 0.00 0.00 0.00 97 1012.4
20260502151204 51 0 0.0 0.0 0.00 0.00 0.00 97 1012.4
20260502150603 51 0 0.0 0.0 0.00 0.00 0.00 97 1012.2
20260502130603 51 289 0.0 1.0 0.00 0.00 0.00 97 1011.2
20260502123603 51 290 0.0 7.0 0.00 0.00 0.00 97 1011.2
20260502123003 51 291 0.0 2.0 0.00 0.00 0.00 97 1011.2
20260502122403 51 292 0.0 1.0 0.00 0.00 0.00 97 1011.2
20260502121803 51 292 0.0 1.0 0.00 0.00 0.00 97 1011.2
20260502121203 51 292 0.0 1.0 0.00 0.00 0.00 97 1011.2
20260502120603 51 291 0.0 2.0 0.00 0.00 0.00 97 1011.1
20260502115403 51 294 0.0 2.0 0.00 0.00 0.00 97 1011.1
20260502114803 51 291 0.0 1.0 0.00 0.00 0.00 97 1011.1
20260502114203 51 287 0.0 1.0 0.00 0.00 0.00 97 1011.1
20260502113603 51 0 0.0 0.0 0.00 0.00 0.00 97 1011.2
20260502112403 51 294 0.0 1.0 0.00 0.00 0.00 97 1011.1
20260502111803 51 0 0.0 1.0 0.00 0.00 0.00 97 1011.2
20260502111204 51 0 0.0 0.0 0.00 0.00 0.00 97 1011.2
20260502110604 51 0 0.0 0.0 0.00 0.00 0.00 97 1011.2
20260502110004 51 0 0.0 0.0 0.00 0.00 0.00 97 1011.3
20260502105404 51 0 0.0 0.0 0.00 0.00 0.00 97 1011.3
20260502104804 51 293 0.0 1.0 0.00 0.00 0.00 97 1011.3
20260502103604 51 0 0.0 0.0 0.00 0.00 0.00 97 1011.4
20260502103004 51 0 0.0 0.0 0.00 0.00 0.00 97 1011.4
20260502102404 51 0 0.0 0.0 0.00 0.00 0.00 97 1011.4
20260502101804 51 0 0.0 0.0 0.00 0.00 0.00 97 1011.5
20260502101203 51 0 0.0 0.0 0.00 0.00 0.00 97 1011.5
20260502100603 51 0 0.0 0.0 0.00 0.00 0.00 97 1011.6
20260502091203 51 298 0.0 3.0 0.00 0.00 0.00 97 1011.9
20260502090603 51 297 0.0 4.0 0.00 0.00 0.00 97 1011.9
20260502071203 51 0 0.0 0.0 0.00 0.00 0.00 97 1012.1
20260502070603 51 0 0.0 0.0 0.00 0.00 0.00 97 1012.0
20260502065403 51 0 0.0 0.0 0.00 0.00 0.00 97 1012.3
20260502064803 51 0 0.0 0.0 0.00 0.00 0.00 97 1012.2
20260502064203 51 0 0.0 0.0 0.00 0.00 0.00 97 1012.2
20260502063603 51 0 0.0 0.0 0.00 0.00 0.00 96 1012.3
20260502063003 51 0 0.0 0.0 0.00 0.00 0.00 96 1012.3
20260502062403 51 0 0.0 0.0 0.00 0.00 0.00 96 1012.2
20260502061804 51 0 0.0 0.0 0.00 0.00 0.00 96 1012.4
20260502061204 51 0 0.0 0.0 0.00 0.00 0.00 96 1012.4
20260502060604 51 0 0.0 0.0 0.00 0.00 0.00 96 1012.4
20260502060004 51 0 0.0 0.0 0.00 0.00 0.00 96 1012.4
20260502055404 51 0 0.0 0.0 0.00 0.00 0.00 96 1012.4
20260502054204 51 0 0.0 0.0 0.00 0.00 0.00 96 1012.5
20260502053604 51 0 0.0 0.0 0.00 0.00 0.00 96 1012.5
20260502051803 51 0 0.0 0.0 0.00 0.00 0.00 96 1012.5
20260502045403 52 0 0.0 0.0 0.00 0.00 0.00 96 1012.5
20260502044203 52 0 0.0 0.0 0.00 0.00 0.00 96 1012.4
20260502043603 52 0 0.0 0.0 0.00 0.00 0.00 96 1012.4
20260502043003 52 0 0.0 0.0 0.00 0.00 0.00 96 1012.4
20260502042403 52 0 0.0 0.0 0.00 0.00 0.00 96 1012.3
20260502041803 52 0 0.0 0.0 0.00 0.00 0.00 96 1012.3
20260502040603 52 0 0.0 0.0 0.00 0.00 0.00 96 1012.3
20260502040003 52 0 0.0 0.0 0.00 0.00 0.00 96 1012.2
20260502035404 52 0 0.0 0.0 0.00 0.00 0.00 95 1012.2
20260502034804 52 0 0.0 0.0 0.00 0.00 0.00 95 1011.9
20260502034204 52 0 0.0 0.0 0.00 0.00 0.00 95 1011.8
20260502033604 52 0 0.0 0.0 0.00 0.00 0.00 95 1011.8
20260502033004 52 292 0.0 1.0 0.00 0.00 0.00 95 1011.8
20260502032404 52 282 0.0 1.0 0.00 0.00 0.00 95 1011.6
20260502031204 53 0 0.0 0.0 0.00 0.00 0.00 94 1011.7
20260502030603 53 287 0.0 1.0 0.00 0.00 0.00 94 1011.7
20260502030004 53 281 0.0 1.0 0.00 0.00 0.00 93 1011.7
20260502025404 53 277 0.0 1.0 0.00 0.00 0.00 93 1011.6
20260502024204 54 278 0.0 1.0 0.00 0.00 0.00 93 1011.5
20260502023603 54 286 0.0 1.0 0.00 0.00 0.00 92 1011.5
20260502023003 54 286 0.0 1.0 0.00 0.00 0.00 92 1011.5
20260502022403 55 285 0.0 1.0 0.00 0.00 0.00 91 1011.5
20260502021803 55 273 0.0 1.0 0.00 0.00 0.00 91 1011.5
20260502021203 55 299 0.0 3.0 0.00 0.00 0.00 91 1011.4
20260502020603 55 298 0.0 3.0 0.00 0.00 0.00 90 1011.4
20260502020003 56 302 0.0 2.0 0.00 0.00 0.00 89 1011.4
20260502015403 56 0 0.0 0.0 0.00 0.00 0.00 90 1011.5
20260502014803 56 298 0.0 2.0 0.00 0.00 0.00 89 1011.5
20260502014203 56 292 0.0 5.0 0.00 0.00 0.00 89 1011.5
20260502013603 57 290 0.0 5.0 0.00 0.00 0.00 88 1011.4
20260502013004 57 264 0.0 2.0 0.00 0.00 0.00 87 1011.4
20260502012404 57 280 0.0 3.0 0.00 0.00 0.00 87 1011.4
20260502011204 57 297 0.0 7.0 0.00 0.00 0.00 87 1011.4
20260502010604 58 295 1.0 7.0 0.00 0.00 0.00 87 1011.5
20260502010004 58 291 0.0 4.0 0.00 0.00 0.00 87 1011.5
20260502005404 57 293 0.0 3.0 0.00 0.00 0.00 87 1011.5
20260502004804 57 296 0.0 4.0 0.00 0.00 0.00 87 1011.6
20260502003603 57 300 1.0 10.0 0.00 0.00 0.00 87 1011.6
20260502003003 58 296 1.0 5.0 0.00 0.00 0.00 85 1011.5
20260502002403 59 291 1.0 9.0 0.00 0.00 0.00 85 1011.5
20260502001803 58 292 1.0 9.0 0.00 0.00 0.00 86 1011.6
20260502001203 59 293 0.0 5.0 0.00 0.00 0.00 86 1011.7
20260502000603 59 290 0.0 5.0 0.00 0.00 0.00 85 1011.6
20260502000004 59 286 0.0 6.0 0.00 0.00 0.00 85 1011.7
20260501234803 59 292 0.0 6.0 0.00 0.00 0.00 85 1011.8
20260501233603 59 284 0.0 3.0 0.00 0.00 0.00 85 1011.9
20260501232403 59 303 0.0 5.0 0.00 0.00 0.00 85 1011.9
20260501231803 59 298 0.0 5.0 0.00 0.00 0.00 86 1012.0
20260501231203 58 296 0.0 4.0 0.00 0.00 0.00 86 1012.0
20260501230603 58 298 1.0 9.0 0.00 0.00 0.00 87 1012.1
20260501230003 58 292 1.0 9.0 0.00 0.00 0.00 87 1012.2
20260501225404 59 283 1.0 6.0 0.00 0.00 0.00 86 1012.2
20260501224804 59 289 1.0 7.0 0.00 0.00 0.00 86 1012.3
20260501224204 59 296 0.0 4.0 0.00 0.00 0.00 86 1012.3
20260501223604 58 290 0.0 7.0 0.00 0.00 0.00 86 1012.5
20260501223004 58 293 1.0 7.0 0.00 0.00 0.00 87 1012.6